sat.trackr.live / text

‹ back to catalog

TECHNOSAT

NORAD 42829 · 2017-042E

PAYLOAD ACTIVE UNKNOWN

§ Identity

Operator
Country
GER
Launch date
2017-07-14
Launch site
TYMSC
Launch vehicle
Mass (kg)
RCS (m²)

Purposes: tech_demo

External: N2YO · Heavens-Above · Gunter

§ Orbital elements

Epoch: 2026-09-09T22:39:20.162304Z

Period
95.66 min
Inclination
97.4389°
Eccentricity
0.0018046
Mean motion
15.05376980 rev/d
Perigee alt
537.8 km
Apogee alt
562.9 km
Semi-major
6,928.5 km
B*
1.4229e-4
RAAN
47.4581°
Arg perigee
159.3372°
Mean anomaly
200.8589°
Rev number
49,945

§ Raw data

TECHNOSAT1 42829U 17042E   26252.94398336  .00001986  00000+0  14229-3 0  99952 42829  97.4389  47.4581 0018046 159.3372 200.8589 15.05376980499452

JSON: /api/v1/satellites/42829 · /tle

For live sub-satellite position, see the globe view (requires WebGL).

§ Visibility from observer

Set your observer location to see the next 7 days of passes ≥ 10°. The values pass through the URL so the page stays shareable.

No JS? Fill the form by hand. The geolocation button needs JavaScript.

§ Radio — SatNOGS DB

ModeDescriptionDownlinkUplink
CW CW Beacon 435.950 MHz
DQPSK S-band telemetry 2263 2.263 GHz
BPSK S-band telemetry 2263 - Network compatibility 2.263 GHz
GMSK TLM GMSK 435.950 MHz

4 transmitters · refreshed weekly from db.satnogs.org